Time,TemperatureF,DewpointF,PressureIn,WindDirection,WindDirectionDegrees,WindSpeedMPH,WindSpeedGustMPH,Humidity,HourlyPrecipIn,Conditions,Clouds,dailyrainin,SoftwareType,DateUTC
2013-08-26 00:00:00,77.5,60.9,29.70,SE,144,3.0,8.0,57,0.00,,,0.08,VWS V14.01,2013-08-26 05:00:00,
2013-08-26 00:01:00,74.4,59.5,29.70,South,169,8.0,8.0,60,0.00,,,0.00,VWS V14.01,2013-08-26 05:01:00,
2013-08-26 00:06:00,74.2,59.3,29.70,SSE,167,8.0,11.0,60,0.00,,,0.00,VWS V14.01,2013-08-26 05:06:00,
2013-08-26 00:11:00,74.2,59.3,29.70,SSE,150,7.0,11.0,60,0.00,,,0.00,VWS V14.01,2013-08-26 05:11:00,
2013-08-26 00:15:00,75.9,61.4,29.70,SE,138,5.0,9.0,61,0.00,,,0.08,VWS V14.01,2013-08-26 05:15:00,
2013-08-26 00:16:00,74.1,59.2,29.70,SSE,147,7.0,10.0,60,0.00,,,0.00,VWS V14.01,2013-08-26 05:16:00,
2013-08-26 00:21:00,74.0,59.1,29.70,SE,146,5.0,10.0,60,0.00,,,0.00,VWS V14.01,2013-08-26 05:21:00,
2013-08-26 00:26:00,73.8,59.4,29.70,SSE,161,3.0,10.0,61,0.00,,,0.00,VWS V14.01,2013-08-26 05:26:00,
2013-08-26 00:30:00,74.9,60.9,29.70,SE,140,4.0,9.0,62,0.00,,,0.08,VWS V14.01,2013-08-26 05:30:00,
2013-08-26 00:31:00,73.5,59.6,29.69,SE,139,3.0,4.0,62,0.00,,,0.00,VWS V14.01,2013-08-26 05:31:00,
2013-08-26 00:36:00,73.4,59.5,29.69,SSE,151,4.0,7.0,62,0.00,,,0.00,VWS V14.01,2013-08-26 05:36:00,
2013-08-26 00:41:00,73.3,59.4,29.69,SE,138,5.0,8.0,62,0.00,,,0.00,VWS V14.01,2013-08-26 05:41:00,
2013-08-26 00:45:00,74.6,60.1,29.70,SE,140,10.0,10.0,61,0.00,,,0.08,VWS V14.01,2013-08-26 05:45:00,
2013-08-26 00:46:00,73.6,59.2,29.69,SE,136,4.0,7.0,61,0.00,,,0.00,VWS V14.01,2013-08-26 05:46:00,
2013-08-26 00:51:00,73.8,59.4,29.69,SE,125,5.0,8.0,61,0.00,,,0.00,VWS V14.01,2013-08-26 05:51:00,
2013-08-26 00:56:00,73.8,59.4,29.69,SE,142,4.0,8.0,61,0.00,,,0.00,VWS V14.01,2013-08-26 05:56:00,
2013-08-26 01:00:00,74.4,59.5,29.70,South,173,8.0,11.0,60,0.00,,,0.00,VWS V14.01,2013-08-26 06:00:00,
2013-08-26 01:01:00,73.8,59.4,29.69,ESE,123,4.0,4.0,61,0.00,,,0.00,VWS V14.01,2013-08-26 06:01:00,
2013-08-26 01:06:00,73.9,59.5,29.69,SSE,147,7.0,8.0,61,0.00,,,0.00,VWS V14.01,2013-08-26 06:06:00,
2013-08-26 01:11:00,73.9,59.5,29.69,SE,137,3.0,8.0,61,0.00,,,0.00,VWS V14.01,2013-08-26 06:11:00,
2013-08-26 01:15:00,74.1,59.2,29.70,SSE,155,5.0,11.0,60,0.00,,,0.00,VWS V14.01,2013-08-26 06:15:00,
2013-08-26 01:16:00,74.0,59.6,29.69,SE,131,3.0,5.0,61,0.00,,,0.00,VWS V14.01,2013-08-26 06:16:00,
2013-08-26 01:21:00,74.0,60.0,29.69,SE,124,3.0,7.0,62,0.00,,,0.00,VWS V14.01,2013-08-26 06:21:00,
2013-08-26 01:26:00,74.0,60.0,29.69,SE,142,3.0,7.0,62,0.00,,,0.00,VWS V14.01,2013-08-26 06:26:00,
2013-08-26 01:30:00,73.6,59.2,29.69,SE,137,4.0,10.0,61,0.00,,,0.00,VWS V14.01,2013-08-26 06:30:00,
2013-08-26 01:31:00,74.0,60.0,29.69,SE,128,2.0,3.0,62,0.00,,,0.00,VWS V14.01,2013-08-26 06:31:00,
2013-08-26 01:36:00,74.0,60.0,29.69,SE,137,1.0,4.0,62,0.00,,,0.00,VWS V14.01,2013-08-26 06:36:00,
2013-08-26 01:41:00,73.9,59.9,29.70,SE,134,2.0,4.0,62,0.00,,,0.00,VWS V14.01,2013-08-26 06:41:00,
2013-08-26 01:45:00,73.5,59.1,29.69,SSE,157,7.0,8.0,61,0.00,,,0.00,VWS V14.01,2013-08-26 06:45:00,
2013-08-26 01:46:00,73.8,60.3,29.70,SSE,150,1.0,2.0,63,0.00,,,0.00,VWS V14.01,2013-08-26 06:46:00,
2013-08-26 01:51:00,73.5,60.0,29.70,SE,136,1.0,2.0,63,0.00,,,0.00,VWS V14.01,2013-08-26 06:51:00,
2013-08-26 01:56:00,73.4,60.4,29.69,SE,133,1.0,4.0,64,0.00,,,0.00,VWS V14.01,2013-08-26 06:56:00,
2013-08-26 02:00:00,73.8,59.4,29.69,SE,140,4.0,8.0,61,0.00,,,0.00,VWS V14.01,2013-08-26 07:00:00,
2013-08-26 02:01:00,73.2,60.2,29.69,ESE,121,2.0,4.0,64,0.00,,,0.00,VWS V14.01,2013-08-26 07:01:00,
2013-08-26 02:06:00,73.0,60.4,29.70,ESE,117,3.0,4.0,65,0.00,,,0.00,VWS V14.01,2013-08-26 07:06:00,
2013-08-26 02:11:00,72.7,60.6,29.69,ESE,117,0.0,4.0,66,0.00,,,0.00,VWS V14.01,2013-08-26 07:11:00,
2013-08-26 02:15:00,74.0,59.6,29.69,ESE,122,3.0,8.0,61,0.00,,,0.00,VWS V14.01,2013-08-26 07:15:00,
2013-08-26 02:16:00,72.5,60.4,29.70,ESE,117,0.0,0.0,66,0.00,,,0.00,VWS V14.01,2013-08-26 07:16:00,
2013-08-26 02:21:00,72.2,60.1,29.69,ESE,117,1.0,1.0,66,0.00,,,0.00,VWS V14.01,2013-08-26 07:21:00,
2013-08-26 02:26:00,72.0,60.3,29.69,ESE,103,3.0,3.0,67,0.00,,,0.00,VWS V14.01,2013-08-26 07:26:00,
2013-08-26 02:30:00,74.0,60.0,29.69,ESE,123,2.0,7.0,62,0.00,,,0.00,VWS V14.01,2013-08-26 07:30:00,
2013-08-26 02:31:00,71.8,60.6,29.69,ESE,113,2.0,4.0,68,0.00,,,0.00,VWS V14.01,2013-08-26 07:31:00,
2013-08-26 02:36:00,71.7,60.5,29.69,ESE,115,1.0,4.0,68,0.00,,,0.00,VWS V14.01,2013-08-26 07:36:00,
2013-08-26 02:41:00,71.4,60.6,29.69,ESE,115,1.0,4.0,69,0.00,,,0.00,VWS V14.01,2013-08-26 07:41:00,
2013-08-26 02:45:00,73.8,60.3,29.70,SSE,150,2.0,4.0,63,0.00,,,0.00,VWS V14.01,2013-08-26 07:45:00,
2013-08-26 02:46:00,71.2,60.4,29.69,ESE,115,1.0,2.0,69,0.00,,,0.00,VWS V14.01,2013-08-26 07:46:00,
2013-08-26 02:51:00,71.1,60.7,29.69,ESE,115,1.0,3.0,70,0.00,,,0.00,VWS V14.01,2013-08-26 07:51:00,
2013-08-26 02:56:00,71.0,60.6,29.69,ESE,122,1.0,3.0,70,0.00,,,0.00,VWS V14.01,2013-08-26 07:56:00,
2013-08-26 03:00:00,73.2,60.2,29.69,ESE,116,2.0,4.0,64,0.00,,,0.00,VWS V14.01,2013-08-26 08:00:00,
2013-08-26 03:01:00,70.8,60.4,29.69,ESE,119,2.0,2.0,70,0.00,,,0.00,VWS V14.01,2013-08-26 08:01:00,
2013-08-26 03:05:00,70.8,60.8,29.69,SSE,151,4.0,5.0,71,0.00,,,0.00,VWS V14.01,2013-08-26 08:05:00,
2013-08-26 03:10:00,70.7,60.7,29.69,SE,142,7.0,7.0,71,0.00,,,0.00,VWS V14.01,2013-08-26 08:10:00,
2013-08-26 03:15:00,70.8,60.4,29.69,SE,124,3.0,5.0,70,0.00,,,0.00,VWS V14.01,2013-08-26 08:15:00,
2013-08-26 03:20:00,70.9,60.5,29.69,SSE,147,3.0,5.0,70,0.00,,,0.00,VWS V14.01,2013-08-26 08:20:00,
2013-08-26 03:25:00,71.1,60.3,29.69,SE,126,5.0,5.0,69,0.00,,,0.00,VWS V14.01,2013-08-26 08:25:00,
2013-08-26 03:30:00,71.2,60.4,29.68,SE,134,4.0,5.0,69,0.00,,,0.00,VWS V14.01,2013-08-26 08:30:00,
2013-08-26 03:35:00,71.2,60.4,29.68,SE,136,2.0,5.0,69,0.00,,,0.00,VWS V14.01,2013-08-26 08:35:00,
2013-08-26 03:40:00,71.2,60.4,29.68,SE,132,3.0,5.0,69,0.00,,,0.00,VWS V14.01,2013-08-26 08:40:00,
2013-08-26 03:45:00,71.2,60.4,29.68,SE,125,2.0,3.0,69,0.00,,,0.00,VWS V14.01,2013-08-26 08:45:00,
2013-08-26 03:50:00,71.2,60.4,29.68,SE,139,3.0,3.0,69,0.00,,,0.00,VWS V14.01,2013-08-26 08:50:00,
2013-08-26 03:55:00,71.0,60.2,29.68,SE,146,2.0,3.0,69,0.00,,,0.00,VWS V14.01,2013-08-26 08:55:00,
2013-08-26 04:00:00,71.0,60.2,29.68,SE,134,1.0,3.0,69,0.00,,,0.00,VWS V14.01,2013-08-26 09:00:00,
2013-08-26 04:05:00,70.9,60.1,29.68,SE,134,1.0,3.0,69,0.00,,,0.00,VWS V14.01,2013-08-26 09:05:00,
2013-08-26 04:10:00,70.8,60.0,29.68,SE,134,1.0,3.0,69,0.00,,,0.00,VWS V14.01,2013-08-26 09:10:00,
2013-08-26 04:15:00,70.7,59.9,29.68,ESE,122,1.0,3.0,69,0.00,,,0.00,VWS V14.01,2013-08-26 09:15:00,
2013-08-26 04:20:00,70.6,59.8,29.68,East,95,1.0,3.0,69,0.00,,,0.00,VWS V14.01,2013-08-26 09:20:00,
2013-08-26 04:25:00,70.6,59.8,29.68,East,99,1.0,3.0,69,0.00,,,0.00,VWS V14.01,2013-08-26 09:25:00,
2013-08-26 04:30:00,70.6,59.8,29.68,East,99,2.0,2.0,69,0.00,,,0.00,VWS V14.01,2013-08-26 09:30:00,
2013-08-26 04:35:00,70.6,59.8,29.67,SE,140,3.0,3.0,69,0.00,,,0.00,VWS V14.01,2013-08-26 09:35:00,
2013-08-26 04:40:00,70.4,59.6,29.68,SE,143,2.0,5.0,69,0.00,,,0.00,VWS V14.01,2013-08-26 09:40:00,
2013-08-26 04:45:00,70.2,59.4,29.67,SE,126,1.0,3.0,69,0.00,,,0.00,VWS V14.01,2013-08-26 09:45:00,
2013-08-26 04:50:00,70.2,59.8,29.67,SE,126,1.0,3.0,70,0.00,,,0.00,VWS V14.01,2013-08-26 09:50:00,
2013-08-26 04:55:00,70.1,59.8,29.67,SE,136,2.0,3.0,70,0.00,,,0.00,VWS V14.01,2013-08-26 09:55:00,
2013-08-26 05:00:00,69.9,59.6,29.67,ESE,123,1.0,2.0,70,0.00,,,0.00,VWS V14.01,2013-08-26 10:00:00,
2013-08-26 05:05:00,69.7,59.4,29.67,ESE,123,1.0,2.0,70,0.00,,,0.00,VWS V14.01,2013-08-26 10:05:00,
2013-08-26 05:10:00,69.5,59.6,29.67,SE,138,2.0,3.0,71,0.00,,,0.00,VWS V14.01,2013-08-26 10:10:00,
2013-08-26 05:15:00,69.3,59.4,29.67,SE,133,3.0,3.0,71,0.00,,,0.00,VWS V14.01,2013-08-26 10:15:00,
2013-08-26 05:20:00,69.2,59.3,29.67,SE,134,2.0,4.0,71,0.00,,,0.00,VWS V14.01,2013-08-26 10:20:00,
2013-08-26 05:25:00,69.2,59.3,29.67,SE,128,2.0,4.0,71,0.00,,,0.00,VWS V14.01,2013-08-26 10:25:00,
2013-08-26 05:30:00,69.4,59.5,29.67,SE,129,1.0,2.0,71,0.00,,,0.00,VWS V14.01,2013-08-26 10:30:00,
2013-08-26 05:35:00,69.4,59.5,29.67,SE,138,1.0,3.0,71,0.00,,,0.00,VWS V14.01,2013-08-26 10:35:00,
2013-08-26 05:40:00,69.3,59.4,29.67,SE,138,0.0,3.0,71,0.00,,,0.00,VWS V14.01,2013-08-26 10:40:00,
2013-08-26 05:45:00,69.1,59.2,29.67,SE,138,0.0,1.0,71,0.00,,,0.00,VWS V14.01,2013-08-26 10:45:00,
2013-08-26 05:50:00,69.0,59.1,29.68,SE,138,2.0,3.0,71,0.00,,,0.00,VWS V14.01,2013-08-26 10:50:00,
2013-08-26 05:55:00,68.9,59.4,29.68,SE,138,1.0,3.0,72,0.00,,,0.00,VWS V14.01,2013-08-26 10:55:00,
2013-08-26 06:00:00,68.8,59.3,29.68,SE,133,2.0,2.0,72,0.00,,,0.00,VWS V14.01,2013-08-26 11:00:00,
2013-08-26 06:05:00,68.8,59.3,29.68,SE,124,0.0,3.0,72,0.00,,,0.00,VWS V14.01,2013-08-26 11:05:00,
2013-08-26 06:10:00,68.8,59.3,29.67,SE,124,1.0,3.0,72,0.00,,,0.00,VWS V14.01,2013-08-26 11:10:00,
2013-08-26 06:15:00,68.6,59.1,29.68,SE,124,0.0,0.0,72,0.00,,,0.00,VWS V14.01,2013-08-26 11:15:00,
2013-08-26 06:20:00,68.3,59.6,29.68,SE,124,0.0,0.0,74,0.00,,,0.00,VWS V14.01,2013-08-26 11:20:00,
2013-08-26 06:25:00,67.8,59.9,29.68,SE,124,0.0,0.0,76,0.00,,,0.00,VWS V14.01,2013-08-26 11:25:00,
2013-08-26 06:30:00,67.4,59.8,29.67,SE,128,2.0,2.0,77,0.00,,,0.00,VWS V14.01,2013-08-26 11:30:00,
2013-08-26 06:35:00,67.6,59.7,29.67,ESE,117,2.0,2.0,76,0.00,,,0.00,VWS V14.01,2013-08-26 11:35:00,
2013-08-26 06:40:00,68.2,59.9,29.68,ESE,123,2.0,3.0,75,0.00,,,0.00,VWS V14.01,2013-08-26 11:40:00,
2013-08-26 06:45:00,68.6,59.9,29.68,SE,131,1.0,1.0,74,0.00,,,0.00,VWS V14.01,2013-08-26 11:45:00,
2013-08-26 06:50:00,68.8,60.1,29.68,SE,132,2.0,3.0,74,0.00,,,0.00,VWS V14.01,2013-08-26 11:50:00,
2013-08-26 06:55:00,68.9,60.2,29.68,ESE,122,2.0,3.0,74,0.00,,,0.00,VWS V14.01,2013-08-26 11:55:00,
2013-08-26 07:00:00,69.1,60.0,29.68,ESE,105,1.0,2.0,73,0.00,,,0.00,VWS V14.01,2013-08-26 12:00:00,
2013-08-26 07:05:00,69.3,60.2,29.68,ESE,119,2.0,3.0,73,0.00,,,0.00,VWS V14.01,2013-08-26 12:05:00,
2013-08-26 07:10:00,69.6,60.5,29.68,SSE,150,2.0,4.0,73,0.00,,,0.00,VWS V14.01,2013-08-26 12:10:00,
2013-08-26 07:15:00,69.9,60.7,29.68,SE,127,3.0,3.0,73,0.00,,,0.00,VWS V14.01,2013-08-26 12:15:00,
2013-08-26 07:20:00,70.1,60.5,29.68,SE,128,2.0,4.0,72,0.00,,,0.00,VWS V14.01,2013-08-26 12:20:00,
2013-08-26 07:25:00,70.3,60.7,29.68,ESE,115,2.0,4.0,72,0.00,,,0.00,VWS V14.01,2013-08-26 12:25:00,
2013-08-26 07:30:00,70.3,61.1,29.69,ESE,105,1.0,1.0,73,0.00,,,0.00,VWS V14.01,2013-08-26 12:30:00,
2013-08-26 07:35:00,70.3,61.1,29.69,ESE,113,2.0,3.0,73,0.00,,,0.00,VWS V14.01,2013-08-26 12:35:00,
2013-08-26 07:40:00,70.3,61.1,29.68,SE,127,1.0,4.0,73,0.00,,,0.00,VWS V14.01,2013-08-26 12:40:00,
2013-08-26 07:45:00,70.4,61.6,29.68,ESE,102,2.0,2.0,74,0.00,,,0.00,VWS V14.01,2013-08-26 12:45:00,
2013-08-26 07:50:00,70.6,61.8,29.68,East,94,4.0,5.0,74,0.00,,,0.00,VWS V14.01,2013-08-26 12:50:00,
2013-08-26 07:55:00,70.6,61.8,29.68,ESE,109,0.0,5.0,74,0.00,,,0.00,VWS V14.01,2013-08-26 12:55:00,
2013-08-26 08:00:00,69.6,61.2,29.68,ESE,109,2.0,5.0,75,0.00,,,0.00,VWS V14.01,2013-08-26 13:00:00,
2013-08-26 08:05:00,68.0,61.1,29.68,ESE,109,0.0,3.0,79,0.00,,,0.00,VWS V14.01,2013-08-26 13:05:00,
2013-08-26 08:10:00,67.4,61.6,29.68,ESE,109,1.0,3.0,82,0.00,,,0.00,VWS V14.01,2013-08-26 13:10:00,
2013-08-26 08:15:00,67.3,61.9,29.68,ESE,109,1.0,3.0,83,0.00,,,0.00,VWS V14.01,2013-08-26 13:15:00,
2013-08-26 08:20:00,67.6,62.2,29.68,ESE,109,2.0,2.0,83,0.00,,,0.00,VWS V14.01,2013-08-26 13:20:00,
2013-08-26 08:25:00,68.5,62.7,29.68,ESE,111,1.0,3.0,82,0.00,,,0.00,VWS V14.01,2013-08-26 13:25:00,
2013-08-26 08:30:00,69.5,63.0,29.68,East,83,0.0,4.0,80,0.00,,,0.00,VWS V14.01,2013-08-26 13:30:00,
2013-08-26 08:35:00,70.8,63.9,29.68,East,90,2.0,5.0,79,0.00,,,0.00,VWS V14.01,2013-08-26 13:35:00,
2013-08-26 08:40:00,72.1,64.0,29.67,ESE,122,2.0,5.0,76,0.00,,,0.00,VWS V14.01,2013-08-26 13:40:00,
2013-08-26 08:45:00,73.5,64.6,29.67,SE,126,5.0,8.0,74,0.00,,,0.00,VWS V14.01,2013-08-26 13:45:00,
2013-08-26 08:50:00,74.5,65.2,29.67,ESE,113,5.0,6.0,73,0.00,,,0.00,VWS V14.01,2013-08-26 13:50:00,
2013-08-26 08:55:00,75.3,65.9,29.67,SE,140,2.0,6.0,73,0.00,,,0.00,VWS V14.01,2013-08-26 13:55:00,
2013-08-26 09:00:00,75.9,66.1,29.67,ENE,68,1.0,6.0,72,0.00,,,0.00,VWS V14.01,2013-08-26 14:00:00,
2013-08-26 09:05:00,76.5,65.9,29.67,East,89,1.0,4.0,70,0.00,,,0.00,VWS V14.01,2013-08-26 14:05:00,
2013-08-26 09:10:00,76.6,65.6,29.67,East,94,1.0,4.0,69,0.00,,,0.00,VWS V14.01,2013-08-26 14:10:00,
2013-08-26 09:15:00,76.8,66.2,29.67,East,97,0.0,4.0,70,0.00,,,0.00,VWS V14.01,2013-08-26 14:15:00,
2013-08-26 09:20:00,77.1,66.0,29.67,ENE,78,3.0,4.0,69,0.00,,,0.00,VWS V14.01,2013-08-26 14:20:00,
2013-08-26 09:25:00,77.1,66.4,29.67,ESE,122,0.0,4.0,70,0.00,,,0.00,VWS V14.01,2013-08-26 14:25:00,
2013-08-26 09:30:00,77.2,68.2,29.67,ESE,122,1.0,4.0,74,0.00,,,0.00,VWS V14.01,2013-08-26 14:30:00,
2013-08-26 09:35:00,77.3,67.5,29.67,East,95,0.0,2.0,72,0.00,,,0.00,VWS V14.01,2013-08-26 14:35:00,
2013-08-26 09:40:00,77.3,68.3,29.67,East,95,1.0,2.0,74,0.00,,,0.00,VWS V14.01,2013-08-26 14:40:00,
2013-08-26 09:45:00,76.5,66.7,29.67,WNW,296,3.0,4.0,72,0.00,,,0.00,VWS V14.01,2013-08-26 14:45:00,
2013-08-26 09:50:00,75.8,66.8,29.67,NW,309,3.0,5.0,74,0.00,,,0.00,VWS V14.01,2013-08-26 14:50:00,
2013-08-26 09:55:00,74.9,65.9,29.67,West,278,5.0,7.0,74,0.00,,,0.00,VWS V14.01,2013-08-26 14:55:00,
2013-08-26 10:00:00,73.3,64.8,29.70,WNW,291,13.0,16.0,75,0.00,,,0.00,VWS V14.01,2013-08-26 15:00:00,
2013-08-26 10:05:00,72.1,64.8,29.70,West,279,5.0,15.0,78,0.00,,,0.00,VWS V14.01,2013-08-26 15:05:00,
2013-08-26 10:10:00,71.9,65.3,29.70,WNW,292,4.0,15.0,80,0.02,,,0.02,VWS V14.01,2013-08-26 15:10:00,
2013-08-26 10:15:00,71.5,66.0,29.71,South,178,8.0,15.0,83,0.07,,,0.07,VWS V14.01,2013-08-26 15:15:00,
2013-08-26 10:20:00,72.3,68.4,29.71,ESE,118,12.0,18.0,88,0.18,,,0.18,VWS V14.01,2013-08-26 15:20:00,
2013-08-26 10:25:00,72.1,67.9,29.70,SE,129,12.0,23.0,87,0.29,,,0.29,VWS V14.01,2013-08-26 15:25:00,
2013-08-26 10:30:00,72.0,68.5,29.72,SSE,164,11.0,23.0,89,0.36,,,0.36,VWS V14.01,2013-08-26 15:30:00,
2013-08-26 10:35:00,71.6,67.8,29.73,South,190,13.0,20.0,88,0.39,,,0.39,VWS V14.01,2013-08-26 15:35:00,
2013-08-26 10:40:00,70.8,66.0,29.74,SSE,153,18.0,27.0,85,0.63,,,0.63,VWS V14.01,2013-08-26 15:40:00,
2013-08-26 10:45:00,70.0,64.5,29.71,ENE,78,9.0,27.0,83,0.93,,,0.93,VWS V14.01,2013-08-26 15:45:00,
2013-08-26 10:50:00,69.8,65.0,29.70,NE,49,6.0,20.0,85,0.94,,,0.94,VWS V14.01,2013-08-26 15:50:00,
2013-08-26 10:55:00,69.4,64.6,29.70,East,90,3.0,20.0,85,0.94,,,0.94,VWS V14.01,2013-08-26 15:55:00,
2013-08-26 11:00:00,69.1,64.6,29.70,ENE,78,6.0,20.0,86,0.94,,,0.94,VWS V14.01,2013-08-26 16:00:00,
2013-08-26 11:05:00,69.3,65.2,29.70,NE,51,7.0,13.0,87,0.94,,,0.94,VWS V14.01,2013-08-26 16:05:00,
2013-08-26 11:10:00,69.8,66.0,29.70,ENE,61,5.0,13.0,88,0.94,,,0.94,VWS V14.01,2013-08-26 16:10:00,
2013-08-26 11:15:00,70.3,66.2,29.69,ENE,73,4.0,13.0,87,0.94,,,0.94,VWS V14.01,2013-08-26 16:15:00,
2013-08-26 11:20:00,70.7,66.2,29.69,East,97,4.0,8.0,86,0.87,,,0.94,VWS V14.01,2013-08-26 16:20:00,
2013-08-26 11:25:00,71.6,67.1,29.69,ENE,78,3.0,11.0,86,0.87,,,0.94,VWS V14.01,2013-08-26 16:25:00,
2013-08-26 11:30:00,72.0,67.8,29.68,ESE,112,5.0,12.0,87,0.87,,,0.94,VWS V14.01,2013-08-26 16:30:00,
2013-08-26 11:35:00,72.2,68.3,29.68,East,99,6.0,12.0,88,0.58,,,0.94,VWS V14.01,2013-08-26 16:35:00,
2013-08-26 11:40:00,72.6,68.8,29.68,East,97,2.0,12.0,88,0.58,,,0.94,VWS V14.01,2013-08-26 16:40:00,
2013-08-26 11:45:00,73.0,69.1,29.68,East,88,5.0,12.0,88,0.59,,,0.95,VWS V14.01,2013-08-26 16:45:00,
2013-08-26 11:50:00,73.2,69.3,29.69,ESE,113,3.0,9.0,88,0.03,,,0.96,VWS V14.01,2013-08-26 16:50:00,
2013-08-26 11:55:00,73.1,69.2,29.69,NE,56,4.0,11.0,88,0.03,,,0.96,VWS V14.01,2013-08-26 16:55:00,
2013-08-26 12:00:00,73.0,69.1,29.69,ESE,113,12.0,12.0,88,0.03,,,0.96,VWS V14.01,2013-08-26 17:00:00,
2013-08-26 12:05:00,73.3,69.4,29.70,ESE,114,8.0,10.0,88,0.02,,,0.96,VWS V14.01,2013-08-26 17:05:00,
2013-08-26 12:10:00,73.4,69.5,29.69,ESE,109,4.0,13.0,88,0.02,,,0.96,VWS V14.01,2013-08-26 17:10:00,
2013-08-26 12:15:00,73.5,69.6,29.68,ESE,109,12.0,14.0,88,0.02,,,0.96,VWS V14.01,2013-08-26 17:15:00,
2013-08-26 12:20:00,73.6,69.4,29.68,SE,130,5.0,11.0,87,0.02,,,0.96,VWS V14.01,2013-08-26 17:20:00,
2013-08-26 12:25:00,73.7,69.2,29.69,SSE,159,3.0,11.0,86,0.02,,,0.96,VWS V14.01,2013-08-26 17:25:00,
2013-08-26 12:30:00,73.7,68.8,29.68,ESE,119,4.0,11.0,85,0.02,,,0.96,VWS V14.01,2013-08-26 17:30:00,
2013-08-26 12:35:00,73.6,68.7,29.68,ESE,117,3.0,10.0,85,0.02,,,0.96,VWS V14.01,2013-08-26 17:35:00,
2013-08-26 12:40:00,73.5,68.6,29.68,ESE,110,2.0,10.0,85,0.03,,,0.97,VWS V14.01,2013-08-26 17:40:00,
2013-08-26 12:45:00,73.5,69.0,29.68,ESE,109,5.0,10.0,86,0.03,,,0.97,VWS V14.01,2013-08-26 17:45:00,
2013-08-26 12:50:00,73.4,68.9,29.67,East,94,4.0,11.0,86,0.02,,,0.97,VWS V14.01,2013-08-26 17:50:00,
2013-08-26 12:55:00,73.6,69.1,29.67,ESE,105,7.0,13.0,86,0.02,,,0.97,VWS V14.01,2013-08-26 17:55:00,
2013-08-26 13:00:00,74.1,69.6,29.67,SSE,163,6.0,14.0,86,0.02,,,0.97,VWS V14.01,2013-08-26 18:00:00,
2013-08-26 13:05:00,74.7,69.8,29.66,SE,139,8.0,16.0,85,0.01,,,0.97,VWS V14.01,2013-08-26 18:05:00,
2013-08-26 13:10:00,75.1,69.5,29.66,SSE,147,8.0,16.0,83,0.01,,,0.97,VWS V14.01,2013-08-26 18:10:00,
2013-08-26 13:15:00,75.6,69.6,29.65,South,173,11.0,16.0,82,0.01,,,0.97,VWS V14.01,2013-08-26 18:15:00,
2013-08-26 13:20:00,75.9,69.6,29.66,SE,130,8.0,13.0,81,0.01,,,0.97,VWS V14.01,2013-08-26 18:20:00,
2013-08-26 13:25:00,76.3,69.6,29.65,SSE,149,8.0,13.0,80,0.01,,,0.97,VWS V14.01,2013-08-26 18:25:00,
2013-08-26 13:30:00,76.6,68.7,29.66,ESE,113,11.0,18.0,77,0.01,,,0.97,VWS V14.01,2013-08-26 18:30:00,
2013-08-26 13:35:00,76.8,68.9,29.65,SSE,156,9.0,17.0,77,0.01,,,0.97,VWS V14.01,2013-08-26 18:35:00,
2013-08-26 13:40:00,77.2,69.3,29.65,SE,139,11.0,17.0,77,0.01,,,0.97,VWS V14.01,2013-08-26 18:40:00,
2013-08-26 13:45:00,77.5,69.6,29.65,SE,124,9.0,17.0,77,0.01,,,0.97,VWS V14.01,2013-08-26 18:45:00,
2013-08-26 13:50:00,77.8,69.9,29.64,ESE,105,5.0,14.0,77,0.00,,,0.97,VWS V14.01,2013-08-26 18:50:00,
2013-08-26 13:55:00,78.4,69.7,29.64,East,101,13.0,14.0,75,0.00,,,0.97,VWS V14.01,2013-08-26 18:55:00,
2013-08-26 14:00:00,79.0,70.3,29.64,ESE,117,12.0,14.0,75,0.00,,,0.97,VWS V14.01,2013-08-26 19:00:00,
2013-08-26 14:05:00,79.0,68.3,29.63,ENE,64,7.0,15.0,70,0.00,,,0.97,VWS V14.01,2013-08-26 19:05:00,
2013-08-26 14:10:00,79.4,69.1,29.64,ENE,78,4.0,15.0,71,0.00,,,0.97,VWS V14.01,2013-08-26 19:10:00,
2013-08-26 14:15:00,80.3,68.7,29.64,SE,135,10.0,17.0,68,0.00,,,0.97,VWS V14.01,2013-08-26 19:15:00,
2013-08-26 14:20:00,80.2,69.0,29.64,SE,138,8.0,16.0,69,0.00,,,0.97,VWS V14.01,2013-08-26 19:20:00,
2013-08-26 14:25:00,80.3,69.5,29.64,SE,144,8.0,16.0,70,0.00,,,0.97,VWS V14.01,2013-08-26 19:25:00,
2013-08-26 14:30:00,80.3,69.5,29.64,SE,140,8.0,16.0,70,0.00,,,0.97,VWS V14.01,2013-08-26 19:30:00,
2013-08-26 14:35:00,80.8,69.6,29.64,SE,126,10.0,16.0,69,0.00,,,0.97,VWS V14.01,2013-08-26 19:35:00,
2013-08-26 14:40:00,81.4,70.1,29.64,ESE,109,8.0,16.0,69,0.00,,,0.97,VWS V14.01,2013-08-26 19:40:00,
2013-08-26 14:45:00,82.1,68.6,29.64,East,92,12.0,16.0,64,0.00,,,0.97,VWS V14.01,2013-08-26 19:45:00,
2013-08-26 14:50:00,82.2,69.6,29.63,SSE,150,15.0,18.0,66,0.00,,,0.97,VWS V14.01,2013-08-26 19:50:00,
2013-08-26 14:55:00,82.1,69.0,29.63,SE,131,11.0,18.0,65,0.00,,,0.97,VWS V14.01,2013-08-26 19:55:00,
2013-08-26 14:59:00,82.6,69.1,29.63,East,86,12.0,18.0,64,0.00,,,0.97,VWS V14.01,2013-08-26 19:59:00,
2013-08-26 15:00:00,79.0,70.3,29.64,East,99,6.0,14.0,75,0.00,,,0.97,VWS V14.01,2013-08-26 20:00:00,
2013-08-26 15:04:00,83.8,69.7,29.63,ENE,78,6.0,14.0,63,0.00,,,0.97,VWS V14.01,2013-08-26 20:04:00,
2013-08-26 15:09:00,84.3,68.8,29.63,ESE,122,3.0,18.0,60,0.00,,,0.97,VWS V14.01,2013-08-26 20:09:00,
2013-08-26 15:14:00,84.6,69.1,29.63,SE,125,12.0,18.0,60,0.00,,,0.97,VWS V14.01,2013-08-26 20:14:00,
2013-08-26 15:15:00,80.3,68.2,29.64,SE,130,10.0,17.0,67,0.00,,,0.97,VWS V14.01,2013-08-26 20:15:00,
2013-08-26 15:19:00,84.3,68.3,29.63,SE,126,11.0,20.0,59,0.00,,,0.97,VWS V14.01,2013-08-26 20:19:00,
2013-08-26 15:24:00,84.0,68.5,29.63,ENE,68,8.0,20.0,60,0.00,,,0.97,VWS V14.01,2013-08-26 20:24:00,
2013-08-26 15:29:00,83.8,68.8,29.63,ESE,113,16.0,20.0,61,0.00,,,0.97,VWS V14.01,2013-08-26 20:29:00,
2013-08-26 15:30:00,80.4,69.6,29.64,East,92,6.0,16.0,70,0.00,,,0.97,VWS V14.01,2013-08-26 20:30:00,
2013-08-26 15:34:00,83.7,68.7,29.63,SE,145,8.0,15.0,61,0.00,,,0.97,VWS V14.01,2013-08-26 20:34:00,
2013-08-26 15:39:00,84.0,69.4,29.62,SE,126,9.0,16.0,62,0.00,,,0.97,VWS V14.01,2013-08-26 20:39:00,
2013-08-26 15:44:00,84.4,69.3,29.62,ESE,116,8.0,21.0,61,0.00,,,0.97,VWS V14.01,2013-08-26 20:44:00,
2013-08-26 15:45:00,82.1,68.6,29.63,ESE,111,11.0,16.0,64,0.00,,,0.97,VWS V14.01,2013-08-26 20:45:00,
2013-08-26 15:49:00,84.5,69.0,29.62,ESE,119,13.0,16.0,60,0.00,,,0.97,VWS V14.01,2013-08-26 20:49:00,
2013-08-26 15:54:00,84.6,69.1,29.61,SE,126,8.0,20.0,60,0.00,,,0.97,VWS V14.01,2013-08-26 20:54:00,
2013-08-26 15:59:00,85.0,69.4,29.61,ENE,63,5.0,20.0,60,0.00,,,0.97,VWS V14.01,2013-08-26 20:59:00,
2013-08-26 16:00:00,82.7,69.2,29.63,SE,132,10.0,18.0,64,0.00,,,0.97,VWS V14.01,2013-08-26 21:00:00,
2013-08-26 16:04:00,85.3,68.7,29.61,ESE,103,15.0,18.0,58,0.00,,,0.97,VWS V14.01,2013-08-26 21:04:00,
2013-08-26 16:09:00,85.2,68.6,29.61,SSE,166,13.0,22.0,58,0.00,,,0.97,VWS V14.01,2013-08-26 21:09:00,
2013-08-26 16:14:00,85.5,69.4,29.61,ESE,111,13.0,22.0,59,0.00,,,0.97,VWS V14.01,2013-08-26 21:14:00,
2013-08-26 16:15:00,84.6,68.6,29.63,SSE,151,14.0,18.0,59,0.00,,,0.97,VWS V14.01,2013-08-26 21:15:00,
2013-08-26 16:19:00,85.5,67.9,29.61,ESE,117,12.0,22.0,56,0.00,,,0.97,VWS V14.01,2013-08-26 21:19:00,
2013-08-26 16:24:00,85.7,69.1,29.61,South,178,9.0,22.0,58,0.00,,,0.97,VWS V14.01,2013-08-26 21:24:00,
2013-08-26 16:29:00,85.9,68.2,29.61,SE,138,11.0,22.0,56,0.00,,,0.97,VWS V14.01,2013-08-26 21:29:00,
2013-08-26 16:30:00,83.8,68.8,29.63,ESE,115,8.0,20.0,61,0.00,,,0.97,VWS V14.01,2013-08-26 21:30:00,
2013-08-26 16:34:00,86.1,68.9,29.60,SE,138,12.0,17.0,57,0.00,,,0.97,VWS V14.01,2013-08-26 21:34:00,
2013-08-26 16:39:00,86.2,68.0,29.60,SE,126,13.0,18.0,55,0.00,,,0.97,VWS V14.01,2013-08-26 21:39:00,
2013-08-26 16:44:00,86.2,68.5,29.60,SE,145,10.0,19.0,56,0.00,,,0.97,VWS V14.01,2013-08-26 21:44:00,
2013-08-26 16:45:00,84.4,69.8,29.62,SE,127,12.0,21.0,62,0.00,,,0.97,VWS V14.01,2013-08-26 21:45:00,
2013-08-26 16:49:00,86.2,68.5,29.60,SE,128,14.0,21.0,56,0.00,,,0.97,VWS V14.01,2013-08-26 21:49:00,
2013-08-26 16:54:00,86.2,69.6,29.60,SE,140,11.0,21.0,58,0.00,,,0.97,VWS V14.01,2013-08-26 21:54:00,
2013-08-26 16:59:00,86.2,69.6,29.60,SSE,152,14.0,21.0,58,0.00,,,0.97,VWS V14.01,2013-08-26 21:59:00,
2013-08-26 17:00:00,85.1,69.5,29.61,ESE,109,8.0,20.0,60,0.00,,,0.97,VWS V14.01,2013-08-26 22:00:00,
2013-08-26 17:04:00,86.3,70.2,29.60,ESE,114,13.0,18.0,59,0.00,,,0.97,VWS V14.01,2013-08-26 22:04:00,
2013-08-26 17:09:00,86.3,70.2,29.60,ESE,103,12.0,18.0,59,0.00,,,0.97,VWS V14.01,2013-08-26 22:09:00,
2013-08-26 17:14:00,86.3,69.6,29.60,SE,124,11.0,20.0,58,0.00,,,0.97,VWS V14.01,2013-08-26 22:14:00,
2013-08-26 17:15:00,85.5,69.4,29.61,SE,126,13.0,22.0,59,0.00,,,0.97,VWS V14.01,2013-08-26 22:15:00,
2013-08-26 17:19:00,86.1,70.5,29.60,ESE,122,10.0,18.0,60,0.00,,,0.97,VWS V14.01,2013-08-26 22:19:00,
2013-08-26 17:24:00,86.1,70.5,29.60,SE,131,7.0,18.0,60,0.00,,,0.97,VWS V14.01,2013-08-26 22:24:00,
2013-08-26 17:29:00,85.9,69.8,29.60,SSE,153,15.0,20.0,59,0.00,,,0.97,VWS V14.01,2013-08-26 22:29:00,
2013-08-26 17:30:00,85.9,68.2,29.61,SE,128,10.0,22.0,56,0.00,,,0.97,VWS V14.01,2013-08-26 22:30:00,
2013-08-26 17:34:00,85.7,69.6,29.60,SE,142,9.0,20.0,59,0.00,,,0.97,VWS V14.01,2013-08-26 22:34:00,
2013-08-26 17:39:00,85.7,71.1,29.60,ESE,122,9.0,20.0,62,0.00,,,0.97,VWS V14.01,2013-08-26 22:39:00,
2013-08-26 17:44:00,85.5,70.4,29.60,SSE,162,10.0,20.0,61,0.00,,,0.97,VWS V14.01,2013-08-26 22:44:00,
2013-08-26 17:45:00,86.2,68.5,29.60,SSE,151,5.0,19.0,56,0.00,,,0.97,VWS V14.01,2013-08-26 22:45:00,
2013-08-26 17:49:00,85.2,70.1,29.59,SE,139,13.0,17.0,61,0.00,,,0.97,VWS V14.01,2013-08-26 22:49:00,
2013-08-26 17:54:00,84.6,69.5,29.59,SE,145,12.0,17.0,61,0.00,,,0.97,VWS V14.01,2013-08-26 22:54:00,
2013-08-26 17:59:00,84.1,69.5,29.59,SE,134,10.0,21.0,62,0.00,,,0.97,VWS V14.01,2013-08-26 22:59:00,
2013-08-26 18:00:00,86.2,69.6,29.60,ESE,115,13.0,21.0,58,0.00,,,0.97,VWS V14.01,2013-08-26 23:00:00,
2013-08-26 18:04:00,83.8,69.7,29.59,SE,142,8.0,19.0,63,0.00,,,0.97,VWS V14.01,2013-08-26 23:04:00,
2013-08-26 18:09:00,83.8,70.7,29.59,SE,140,11.0,19.0,65,0.00,,,0.97,VWS V14.01,2013-08-26 23:09:00,
2013-08-26 18:14:00,83.6,70.9,29.59,ESE,115,8.0,19.0,66,0.00,,,0.97,VWS V14.01,2013-08-26 23:14:00,
2013-08-26 18:15:00,86.3,69.6,29.60,SE,139,17.0,20.0,58,0.00,,,0.97,VWS V14.01,2013-08-26 23:15:00,
2013-08-26 18:19:00,83.1,70.9,29.59,SE,145,14.0,15.0,67,0.00,,,0.97,VWS V14.01,2013-08-26 23:19:00,
2013-08-26 18:24:00,82.5,70.3,29.59,SE,139,14.0,18.0,67,0.00,,,0.97,VWS V14.01,2013-08-26 23:24:00,
2013-08-26 18:29:00,81.9,70.2,29.59,SE,139,5.0,18.0,68,0.00,,,0.97,VWS V14.01,2013-08-26 23:29:00,
2013-08-26 18:30:00,85.9,69.3,29.60,SE,136,9.0,20.0,58,0.00,,,0.97,VWS V14.01,2013-08-26 23:30:00,
2013-08-26 18:34:00,81.6,69.9,29.59,SE,134,11.0,14.0,68,0.00,,,0.97,VWS V14.01,2013-08-26 23:34:00,
2013-08-26 18:39:00,81.6,69.9,29.60,SE,132,10.0,14.0,68,0.00,,,0.97,VWS V14.01,2013-08-26 23:39:00,
2013-08-26 18:44:00,81.4,70.1,29.60,SE,136,5.0,14.0,69,0.00,,,0.97,VWS V14.01,2013-08-26 23:44:00,
2013-08-26 18:45:00,85.5,70.4,29.60,SE,132,7.0,20.0,61,0.00,,,0.97,VWS V14.01,2013-08-26 23:45:00,
2013-08-26 18:49:00,81.3,70.0,29.60,SSE,157,6.0,10.0,69,0.00,,,0.97,VWS V14.01,2013-08-26 23:49:00,
2013-08-26 18:54:00,81.2,70.4,29.60,ESE,115,3.0,10.0,70,0.00,,,0.97,VWS V14.01,2013-08-26 23:54:00,
2013-08-26 18:59:00,81.1,70.3,29.60,South,169,7.0,10.0,70,0.00,,,0.97,VWS V14.01,2013-08-26 23:59:00,
2013-08-26 19:00:00,84.0,69.9,29.59,SSE,151,9.0,21.0,63,0.00,,,0.97,VWS V14.01,2013-08-27 00:00:00,
2013-08-26 19:04:00,81.0,70.2,29.60,SE,137,4.0,7.0,70,0.00,,,0.97,VWS V14.01,2013-08-27 00:04:00,
2013-08-26 19:09:00,80.9,70.1,29.60,SE,124,3.0,7.0,70,0.00,,,0.97,VWS V14.01,2013-08-27 00:09:00,
2013-08-26 19:14:00,80.7,69.9,29.60,ESE,106,4.0,7.0,70,0.00,,,0.97,VWS V14.01,2013-08-27 00:14:00,
2013-08-26 19:15:00,83.6,70.9,29.59,SSE,147,9.0,19.0,66,0.00,,,0.97,VWS V14.01,2013-08-27 00:15:00,
2013-08-26 19:19:00,80.6,69.8,29.59,ESE,122,4.0,9.0,70,0.00,,,0.97,VWS V14.01,2013-08-27 00:19:00,
2013-08-26 19:24:00,80.6,70.2,29.60,SE,146,5.0,9.0,71,0.00,,,0.97,VWS V14.01,2013-08-27 00:24:00,
2013-08-26 19:29:00,80.5,70.5,29.60,SSE,147,4.0,9.0,72,0.00,,,0.97,VWS V14.01,2013-08-27 00:29:00,
2013-08-26 19:30:00,81.9,70.2,29.59,SE,143,7.0,18.0,68,0.00,,,0.97,VWS V14.01,2013-08-27 00:30:00,
2013-08-26 19:34:00,80.3,70.3,29.60,SSE,147,3.0,5.0,72,0.00,,,0.97,VWS V14.01,2013-08-27 00:34:00,
2013-08-26 19:39:00,80.2,70.7,29.60,SE,143,3.0,5.0,73,0.00,,,0.97,VWS V14.01,2013-08-27 00:39:00,
2013-08-26 19:44:00,79.9,70.4,29.60,SE,137,3.0,5.0,73,0.00,,,0.97,VWS V14.01,2013-08-27 00:44:00,
2013-08-26 19:45:00,81.4,70.1,29.60,SSE,149,4.0,14.0,69,0.00,,,0.97,VWS V14.01,2013-08-27 00:45:00,
2013-08-26 19:49:00,79.7,70.6,29.59,SE,134,1.0,5.0,74,0.00,,,0.97,VWS V14.01,2013-08-27 00:49:00,
2013-08-26 19:54:00,79.4,70.3,29.59,SE,124,3.0,5.0,74,0.00,,,0.97,VWS V14.01,2013-08-27 00:54:00,
2013-08-26 19:59:00,79.3,70.6,29.59,ESE,107,1.0,5.0,75,0.00,,,0.97,VWS V14.01,2013-08-27 00:59:00,
2013-08-26 20:00:00,81.1,70.3,29.60,ESE,116,5.0,10.0,70,0.00,,,0.97,VWS V14.01,2013-08-27 01:00:00,
2013-08-26 20:04:00,78.9,70.2,29.59,ESE,107,1.0,2.0,75,0.00,,,0.97,VWS V14.01,2013-08-27 01:04:00,
2013-08-26 20:09:00,78.6,69.9,29.59,NNE,32,1.0,3.0,75,0.00,,,0.97,VWS V14.01,2013-08-27 01:09:00,
2013-08-26 20:14:00,78.3,70.4,29.60,NE,36,2.0,3.0,77,0.00,,,0.97,VWS V14.01,2013-08-27 01:14:00,
2013-08-26 20:15:00,80.7,69.9,29.60,ESE,114,4.0,7.0,70,0.00,,,0.97,VWS V14.01,2013-08-27 01:15:00,
2013-08-26 20:19:00,77.9,70.4,29.61,NNE,29,0.0,2.0,78,0.00,,,0.97,VWS V14.01,2013-08-27 01:19:00,
2013-08-26 20:24:00,77.8,70.3,29.60,ENE,61,1.0,2.0,78,0.00,,,0.97,VWS V14.01,2013-08-27 01:24:00,
2013-08-26 20:29:00,77.9,70.4,29.60,SE,126,1.0,2.0,78,0.00,,,0.97,VWS V14.01,2013-08-27 01:29:00,
2013-08-26 20:30:00,80.4,70.0,29.60,SE,142,3.0,9.0,71,0.00,,,0.97,VWS V14.01,2013-08-27 01:30:00,
2013-08-26 20:34:00,77.9,70.4,29.60,ESE,103,1.0,3.0,78,0.00,,,0.97,VWS V14.01,2013-08-27 01:34:00,
2013-08-26 20:39:00,77.8,70.3,29.61,ESE,103,0.0,3.0,78,0.00,,,0.97,VWS V14.01,2013-08-27 01:39:00,
2013-08-26 20:44:00,77.8,70.3,29.60,ESE,103,2.0,3.0,78,0.00,,,0.97,VWS V14.01,2013-08-27 01:44:00,
2013-08-26 20:45:00,79.9,70.4,29.60,SSE,151,3.0,5.0,73,0.00,,,0.97,VWS V14.01,2013-08-27 01:45:00,
2013-08-26 20:49:00,77.8,70.3,29.61,SE,136,2.0,4.0,78,0.00,,,0.97,VWS V14.01,2013-08-27 01:49:00,
2013-08-26 20:54:00,77.6,68.5,29.61,ESE,111,2.0,4.0,74,0.00,,,0.97,VWS V14.01,2013-08-27 01:54:00,
2013-08-26 20:59:00,77.7,68.6,29.61,ENE,78,1.0,4.0,74,0.00,,,0.97,VWS V14.01,2013-08-27 01:59:00,
2013-08-26 21:00:00,79.2,70.5,29.59,ESE,107,0.0,5.0,75,0.00,,,0.97,VWS V14.01,2013-08-27 02:00:00,
2013-08-26 21:04:00,77.5,68.4,29.61,NE,55,1.0,2.0,74,0.00,,,0.97,VWS V14.01,2013-08-27 02:04:00,
2013-08-26 21:09:00,77.2,69.3,29.61,NE,49,1.0,3.0,77,0.00,,,0.97,VWS V14.01,2013-08-27 02:09:00,
2013-08-26 21:14:00,77.0,69.9,29.61,East,89,2.0,5.0,79,0.00,,,0.97,VWS V14.01,2013-08-27 02:14:00,
2013-08-26 21:15:00,78.2,70.3,29.60,NNE,29,2.0,3.0,77,0.00,,,0.97,VWS V14.01,2013-08-27 02:15:00,
2013-08-26 21:19:00,77.0,70.2,29.61,ESE,117,1.0,4.0,80,0.00,,,0.97,VWS V14.01,2013-08-27 02:19:00,
2013-08-26 21:24:00,76.9,70.2,29.61,East,84,2.0,5.0,80,0.00,,,0.97,VWS V14.01,2013-08-27 02:24:00,
2013-08-26 21:29:00,76.7,70.3,29.61,ENE,68,2.0,5.0,81,0.00,,,0.97,VWS V14.01,2013-08-27 02:29:00,
2013-08-26 21:30:00,77.9,70.4,29.60,SE,126,1.0,2.0,78,0.00,,,0.97,VWS V14.01,2013-08-27 02:30:00,
2013-08-26 21:34:00,76.5,70.5,29.62,East,99,4.0,8.0,82,0.00,,,0.97,VWS V14.01,2013-08-27 02:34:00,
2013-08-26 21:39:00,76.4,70.4,29.62,ESE,107,2.0,8.0,82,0.00,,,0.97,VWS V14.01,2013-08-27 02:39:00,
2013-08-26 21:44:00,76.2,70.2,29.63,East,93,0.0,8.0,82,0.00,,,0.97,VWS V14.01,2013-08-27 02:44:00,
2013-08-26 21:45:00,77.8,70.3,29.60,ESE,103,2.0,3.0,78,0.00,,,0.97,VWS V14.01,2013-08-27 02:45:00,
2013-08-26 21:49:00,76.1,70.1,29.63,East,93,1.0,2.0,82,0.00,,,0.97,VWS V14.01,2013-08-27 02:49:00,
2013-08-26 21:54:00,75.8,69.8,29.62,East,93,0.0,2.0,82,0.00,,,0.97,VWS V14.01,2013-08-27 02:54:00,
2013-08-26 21:59:00,75.6,70.0,29.63,East,93,1.0,2.0,83,0.00,,,0.97,VWS V14.01,2013-08-27 02:59:00,
2013-08-26 22:00:00,77.7,68.2,29.61,ENE,68,1.0,4.0,73,0.00,,,0.97,VWS V14.01,2013-08-27 03:00:00,
2013-08-26 22:04:00,75.5,69.9,29.63,ESE,111,1.0,3.0,83,0.00,,,0.97,VWS V14.01,2013-08-27 03:04:00,
2013-08-26 22:09:00,75.5,69.9,29.63,ESE,111,1.0,4.0,83,0.00,,,0.97,VWS V14.01,2013-08-27 03:09:00,
2013-08-26 22:14:00,75.5,69.9,29.63,East,92,3.0,4.0,83,0.00,,,0.97,VWS V14.01,2013-08-27 03:14:00,
2013-08-26 22:15:00,77.0,70.2,29.61,ESE,106,4.0,5.0,80,0.00,,,0.97,VWS V14.01,2013-08-27 03:15:00,
2013-08-26 22:19:00,75.3,69.7,29.64,ESE,103,2.0,5.0,83,0.00,,,0.97,VWS V14.01,2013-08-27 03:19:00,
2013-08-26 22:24:00,75.2,69.6,29.64,ESE,113,2.0,5.0,83,0.00,,,0.97,VWS V14.01,2013-08-27 03:24:00,
2013-08-26 22:29:00,75.1,69.1,29.64,WSW,255,3.0,5.0,82,0.00,,,0.97,VWS V14.01,2013-08-27 03:29:00,
2013-08-26 22:30:00,76.7,70.3,29.61,SE,128,6.0,6.0,81,0.00,,,0.97,VWS V14.01,2013-08-27 03:30:00,
2013-08-26 22:34:00,74.0,69.4,29.67,WNW,284,18.0,22.0,86,0.00,,,0.97,VWS V14.01,2013-08-27 03:34:00,
2013-08-26 22:40:00,73.5,69.6,29.68,WSW,258,9.0,22.0,88,0.00,,,0.97,VWS V14.01,2013-08-27 03:40:00,
2013-08-26 22:45:00,73.5,69.6,29.68,North,353,6.0,6.0,88,0.00,,,0.97,VWS V14.01,2013-08-27 03:45:00,
2013-08-26 22:50:00,73.1,67.9,29.67,West,278,3.0,17.0,84,0.00,,,0.97,VWS V14.01,2013-08-27 03:50:00,
2013-08-26 22:55:00,72.8,67.2,29.67,NW,313,2.0,17.0,83,0.00,,,0.97,VWS V14.01,2013-08-27 03:55:00,
2013-08-26 23:00:00,72.6,66.7,29.66,North,4,5.0,7.0,82,0.00,,,0.97,VWS V14.01,2013-08-27 04:00:00,
2013-08-26 23:01:00,72.6,66.7,29.66,NE,40,2.0,7.0,82,0.00,,,0.97,VWS V14.01,2013-08-27 04:01:00,
2013-08-26 23:06:00,72.3,66.8,29.66,NNW,348,3.0,7.0,83,0.00,,,0.97,VWS V14.01,2013-08-27 04:06:00,
2013-08-26 23:11:00,72.1,66.6,29.65,NE,37,2.0,7.0,83,0.00,,,0.97,VWS V14.01,2013-08-27 04:11:00,
2013-08-26 23:15:00,75.4,69.8,29.63,ESE,104,2.0,4.0,83,0.00,,,0.97,VWS V14.01,2013-08-27 04:15:00,
2013-08-26 23:16:00,72.0,66.5,29.65,NNE,26,0.0,2.0,83,0.00,,,0.97,VWS V14.01,2013-08-27 04:16:00,
2013-08-26 23:21:00,71.9,66.4,29.65,North,9,1.0,3.0,83,0.00,,,0.97,VWS V14.01,2013-08-27 04:21:00,
2013-08-26 23:26:00,71.8,66.6,29.65,NNE,31,2.0,4.0,84,0.00,,,0.97,VWS V14.01,2013-08-27 04:26:00,
2013-08-26 23:30:00,75.0,69.4,29.64,WNW,287,4.0,5.0,83,0.00,,,0.97,VWS V14.01,2013-08-27 04:30:00,
2013-08-26 23:31:00,71.7,66.5,29.65,NNE,13,0.0,2.0,84,0.00,,,0.97,VWS V14.01,2013-08-27 04:31:00,
2013-08-26 23:36:00,71.7,66.5,29.65,SE,124,3.0,3.0,84,0.00,,,0.97,VWS V14.01,2013-08-27 04:36:00,
2013-08-26 23:41:00,72.1,67.2,29.64,East,99,2.0,4.0,85,0.00,,,0.97,VWS V14.01,2013-08-27 04:41:00,
2013-08-26 23:45:00,73.5,69.6,29.68,North,353,6.0,22.0,88,0.00,,,0.97,VWS V14.01,2013-08-27 04:45:00,
2013-08-26 23:46:00,72.2,67.0,29.64,SE,144,4.0,4.0,84,0.00,,,0.97,VWS V14.01,2013-08-27 04:46:00,
2013-08-26 23:51:00,72.2,67.3,29.64,SSE,147,3.0,5.0,85,0.00,,,0.97,VWS V14.01,2013-08-27 04:51:00,
2013-08-26 23:56:00,72.1,67.2,29.64,SE,132,3.0,7.0,85,0.00,,,0.97,VWS V14.01,2013-08-27 04:56:00,